Regional Weather Roundup
Issued by NWS Little Rock, AR

Home | Current Version | Previous Version | Text Only | Print | Product List | Glossary On
Versions: 1 2 3 4 5 6 7 8 9 10 11 12 13 14 15 16 17 18 19 20 21 22 23 24 25 26 27 28 29 30 31 32 33 34 35 36 37 38 39 40 41 42 43 44 45 46 47 48 49 50
000
ASUS44 KLZK 100405
RWRLZK

WEATHER ROUNDUP FOR ARKANSAS
NATIONAL WEATHER SERVICE LITTLE ROCK AR
1000 PM CST FRI DEC 09 2016

NOTE: "FAIR" INDICATES FEW OR NO CLOUDS BELOW 12,000 FEET WITH NO
SIGNIFICANT WEATHER AND/OR OBSTRUCTIONS TO VISIBILITY.

ARZ001-003-010-029-100500-
NORTHWEST ARKANSAS

CITY           SKY/WX    TMP DP  RH WIND       PRES   REMARKS
FAYETTEVILLE   CLOUDY    32  15  49 S3        30.51S
FORT SMITH     CLOUDY    35  17  47 E7        30.56R WCI  29
HARRISON       CLOUDY    29  14  53 SE5       30.52S WCI  24
BENTONVILLE    CLOUDY    34  12  40 CALM      30.51S
ROGERS         CLOUDY    32  20  61 SE3       30.51S
SILOAM SPGS    CLOUDY    32  16  51 SE3       30.51S
HIGHFILL       CLOUDY    33  17  51 CALM      30.50S
$$

ARZ004-005-016-100500-
NORTH CENTRAL ARKANSAS

CITY           SKY/WX    TMP DP  RH WIND       PRES   REMARKS
BATESVILLE     CLEAR     25  16  68 CALM      30.61R
FLIPPIN        CLOUDY    27  18  69 CALM      30.53F
MTN HOME       CLOUDY    28  16  60 SE3       30.54F
$$

ARZ040-041-100500-
WEST CENTRAL ARKANSAS

CITY           SKY/WX    TMP DP  RH WIND       PRES   REMARKS
MENA           CLOUDY    37  19  48 CALM      30.53S
MOUNT IDA      CLOUDY    35  20  54 SE5       30.53R WCI  31
$$

ARZ009-017-025-026-028-100500-
NORTHEAST ARKANSAS

CITY           SKY/WX    TMP DP  RH WIND       PRES   REMARKS
CORNING        FAIR      27  23  86 CALM      30.62R
JONESBORO      CLEAR     24  21  88 CALM      30.61R
NEWPORT        CLEAR     26  23  88 W3        30.62R
WALNUT RIDGE   CLEAR     27  18  69 CALM      30.61R
BLYTHEVILLE    CLEAR     26  20  77 CALM      30.62R
$$

ARZ022-023-033-042-044-100500-
CENTRAL ARKANSAS

CITY           SKY/WX    TMP DP  RH WIND       PRES   REMARKS
LITTLE ROCK    CLEAR     25  23  92 CALM      30.61R
N LITTLE ROCK    N/A     28  20  72 CALM      30.63R
JACKSONVILLE   CLEAR     24  19  83 CALM      30.59S
SEARCY         CLEAR     24  21  88 CALM      30.63R
HOT SPRINGS    CLOUDY    32  22  66 E3        30.58R
RUSSELLVILLE   CLEAR     24  19  81 CALM      30.58R
CLINTON        FAIR      23  19  86 CALM      30.60R
$$

ARZ036-100500-
EAST ARKANSAS

CITY           SKY/WX    TMP DP  RH WIND       PRES   REMARKS
WEST MEMPHIS   CLEAR     25  21  85 CALM      30.61
$$

ARZ050-053-066-070-073-100500-
SOUTHWEST ARKANSAS

CITY           SKY/WX    TMP DP  RH WIND       PRES   REMARKS
ARKADELPHIA    CLOUDY    32  23  69 CALM      30.61R
CAMDEN         CLEAR     27  19  74 CALM      30.60S
TEXARKANA      CLOUDY    37  24  59 CALM      30.57S
EL DORADO      CLOUDY    29  24  82 CALM      30.59R
DE QUEEN       CLOUDY    38  27  64 CALM      30.56R
$$

ARZ056-057-069-100500-
SOUTHEAST ARKANSAS

CITY           SKY/WX    TMP DP  RH WIND       PRES   REMARKS
PINE BLUFF     CLEAR     27  23  85 CALM      30.61R
STUTTGART      CLEAR     30  19  64 CALM      30.62R
MONTICELLO     CLEAR     29  22  75 CALM      30.60R

$$





USA.gov is the U.S. government's official web portal to all federal, state and local government web resources and services.